Погода в Волоке

Россия / Тверская область     56°51′17″N   32°02′38″E
темп.,
°C
ветер,
м/с
пор.,
м/с
влажн.,
%
обл.,
%
осадки,
мм/ч
давл.,
гПа
погр.,
м
27 января, чт
чт2700:00−10ююз3997100 0.0 1016220
03:00−10ю31095100 0.0 1015257
06:00−11ю4129694 0.0 1012293
09:00−11ю41395100 0.0 1011351
12:00−8ю5139399 0.2 1008391
15:00−6ю5119498 0.5 1006425
18:00−6ю41295100 0.3 1004384
21:00−6ю51394100 0.4 1002417
28 января, пт
пт2800:00−5ююв5149499 0.3 999523
03:00−3ююв61595100 1.0 997671
06:00−2ю5139699 1.0 995655
09:00−2ю41097100 1.8 995447
12:000ююз4787100 0.3 995766
15:000ю3797100 0.4 995686
18:00−1юв3898100 0.5 996357
21:00−1юв2698100 1.6 997277
29 января, сб
сб2900:00−2ссв1199100 0.6 99941
03:00−3ссз399794 1.1 1001346
06:00−5ссз51293100 0.2 1004491
09:00−7сз41192100 0.3 1006519
12:00−7сз4993100 0.1 1008467
15:00−7зсз3692100 0.1 1008495
18:00−7з3591100 0.1 1008313
21:00−11ю2698100 0.1 100580
30 января, вс
вс3000:00−9ю4129497 0.0 1001301
03:00−7ююв61887100 0.0 994582
06:00−5ю71794100 2.3 986883
09:00−4ю71695100 5.1 981784
12:00−2ю61495100 1.9 979627
15:000ююз5109798 3.2 978877
18:00−1ююз4991100 0.3 979642
21:00−2ю3896100 0.4 980425
31 января, пн
пн3100:00−3юв3697100 0.1 981223
03:00−3юв1498100 0.1 983133
06:00−9юв119973 0.1 98410
09:00−8сз119997 0.1 98630
12:00−4з249495 0.1 988303
15:00−5зсз369399 0.2 989453
18:00−7зсз499493 0.4 992444
21:00−8зсз41093100 0.6 994491